Location: Luxembourg
(49.6117°N, 6.1300°E)
Time: 02:05:11
(UTC+01:00)

LilacSat-2 - Visible Passes

Search period start: 16 November 2019 00:00
Search period end: 26 November 2019 00:00
Orbit: 512 x 536 km, 97.5° (Epoch: 15 November)

Date Brightness Start Highest point End Pass type
(mag) Time Alt. Az. Time Alt. Az. Time Alt. Az.
16 Nov ? 06:42:50 10° NNE 06:46:40 84° WNW 06:50:29 10° SSW visible
16 Nov ? 17:28:09 10° SSE 17:31:55 88° ENE 17:35:41 10° NNW visible
17 Nov ? 06:30:40 10° NNE 06:34:29 72° ESE 06:38:17 10° S visible
17 Nov ? 18:52:50 10° WSW 18:54:24 12° W 18:55:57 10° WNW visible
18 Nov ? 06:18:32 10° NNE 06:22:16 52° E 06:26:01 10° S visible
18 Nov ? 18:39:41 10° SW 18:42:05 16° W 18:44:31 10° NW visible
19 Nov ? 06:06:28 10° NNE 06:10:03 38° E 06:13:38 10° SSE visible
19 Nov ? 18:26:52 10° SW 18:29:47 21° W 18:32:45 10° NW visible
20 Nov ? 05:54:26 10° NE 05:57:49 28° E 06:01:09 10° SSE visible
20 Nov ? 18:14:15 10° SSW 18:17:31 28° W 18:20:50 10° NW visible
21 Nov ? 05:42:31 10° NE 05:45:32 22° E 05:48:32 10° SE visible
21 Nov ? 07:16:21 10° N 07:19:53 36° WNW 07:23:25 10° SW visible
21 Nov ? 18:01:45 10° SSW 18:05:16 38° W 18:08:50 10° NNW visible
22 Nov ? 05:30:45 10° NE 05:33:15 16° E 05:35:44 10° SE visible
22 Nov ? 07:04:02 10° N 07:07:45 48° WNW 07:11:27 10° SW visible
22 Nov ? 17:49:22 10° S 17:53:02 53° W 17:56:45 10° NNW visible
23 Nov ? 05:19:17 10° ENE 05:20:56 12° E 05:22:35 10° ESE visible
23 Nov ? 06:51:47 10° N 06:55:35 66° WNW 06:59:24 10° SSW visible
23 Nov ? 17:37:06 10° S 17:40:50 73° WSW 17:44:37 10° NNW visible
24 Nov ? 06:39:33 10° NNE 06:43:26 90° E 06:47:17 10° SSW visible
24 Nov ? 17:24:54 10° SSE 17:28:39 81° ENE 17:32:26 10° NNW visible
25 Nov ? 06:27:23 10° NNE 06:31:14 66° ESE 06:35:04 10° S visible
25 Nov ? 17:12:48 10° SSE 17:16:28 59° ENE 17:20:13 10° N visible
25 Nov ? 18:49:15 10° WSW 18:51:06 13° W 18:52:58 10° WNW visible
